Location: Sternwarte auf dem Internationalen Platz Vogelsang IP
(50.5721°N, 6.4398°E)
Time: 21:35:09
(UTC+01:00)

Vanguard 3 - All Passes

Search period start: 05 December 2025 00:00
Search period end: 15 December 2025 00:00
Orbit: 507 x 3208 km, 33.3° (Epoch: 04 December)

Date Brightness Start Highest point End Pass type
(mag) Time Alt. Az. Time Alt. Az. Time Alt. Az.
10 Dec - 15:25:32 10° SSW 15:27:28 12° S 15:29:10 10° SSE daylight
11 Dec - 14:03:24 10° SSW 14:06:39 13° S 14:09:20 10° SSE daylight
11 Dec - 16:15:25 10° SSW 16:16:38 11° SSW 16:17:44 10° S daylight
12 Dec - 12:41:59 10° S 12:45:31 13° SSE 12:48:30 10° SE daylight
12 Dec - 14:52:15 10° SW 14:55:58 15° S 14:58:57 10° SSE daylight
13 Dec - 11:22:56 10° SSE 11:24:05 10° SSE 11:25:11 10° SSE daylight
13 Dec - 13:29:46 10° SSW 13:35:01 17° S 13:39:01 10° SE daylight
13 Dec - 15:42:08 10° SW 15:45:08 13° SSW 15:47:38 10° SSE daylight
14 Dec - 12:07:43 10° SSW 12:13:42 16° SSE 12:18:18 10° SE daylight
14 Dec - 14:18:59 10° SW 14:24:23 18° S 14:28:23 10° SE daylight
